Location: Caltech
(34.1382°N, 118.1253°W)
Time: 00:19:36
(UTC-07:00)

OAO 2 Rocket - Visible Passes

Search period start: 31 July 2016 00:00
Search period end: 10 August 2016 00:00
Orbit: 677 x 746 km, 35.0° (Epoch: 30 July)

Date Brightness Start Highest point End Pass type
(mag) Time Alt. Az. Time Alt. Az. Time Alt. Az.
31 Jul 5.1 05:35:19 10° SSW 05:39:20 23° SSE 05:43:17 10° E visible
01 Aug 5.5 04:38:59 10° S 04:41:54 15° SE 04:44:51 10° ESE visible
02 Aug 4.4 05:23:51 10° SW 05:28:37 36° SSE 05:33:19 10° E visible
03 Aug 4.8 04:29:07 20° S 04:31:08 26° SSE 04:35:23 10° E visible
04 Aug 5.4 03:34:39 17° SE 03:34:39 17° SE 03:37:09 10° ESE visible
04 Aug 3.8 05:13:36 14° SW 05:17:59 55° SSE 05:23:02 10° E visible
05 Aug 4.1 04:19:06 34° S 04:20:26 41° SSE 04:25:19 10° E visible
06 Aug 5.0 03:24:33 25° ESE 03:24:33 25° ESE 03:27:26 10° E visible
06 Aug 3.4 05:03:31 18° WSW 05:07:27 75° SSE 05:12:37 10° E visible
07 Aug 3.5 04:08:57 52° SSW 04:09:49 60° SSE 04:14:59 10° E visible
08 Aug 4.8 03:14:23 29° ESE 03:14:23 29° ESE 03:17:15 10° E visible
08 Aug 3.4 04:53:21 21° W 04:56:57 88° N 05:02:12 10° E visible
09 Aug 3.2 03:58:47 72° SW 03:59:17 80° SSE 04:04:33 10° E visible
09 Aug 3.5 05:38:55 10° W 05:44:14 81° N 05:49:26 10° E visible
